カタログに戻る

JIAOTONG VDES

運用中通信SSO
NORAD 54588·PAYLOAD·🇨🇳 China

打ち上げ Dec 7, 2022 から Jiuquan Satellite Launch Center

Loading…

次のパス (今後24時間)

TLE

最新Source: Space-Track

元期: Sep 14, 2026, 23:18 UTC

1 54588U 22164A   26257.97122111  .00000256  00000-0  83625-4 0  9992
2 54588  98.2419 274.6653 0010968  58.5903 301.6360 14.46121506199055

AllMySatでJIAOTONG VDESをリアルタイム追跡

Download on the App Store